Flag for Canada Weather past 2 weeks in Whitby, Ontario, Canada

Now
79 °F

More clouds than sun.


Feels Like: 80 °F
Forecast: N/A
Wind: 9 mph from Southwest

Location: Toronto Buttonville

Current Time: May 25, 2015 at 4:52:19 PM

Latest Report: May 25, 2015 at 4:00 PM


Visibility: 15 mi

Pressure: 29.96 "Hg

Humidity: 51%

Dew point: 59 °F

Location of WhitbyLocation

Historic Weather in Whitby — Graph

°F

Whitby temperature yesterday

Maximum temperature yesterday: 82 °F (at 2:00 PM)
Minimum temperature yesterday: 55 °F (at 4:00 AM)
Average temperature yesterday: 70 °F

Past Weeks' High & Low Weather Summary

 TemperatureHumidityPressure
High82 °F (May 18, 2:00 PM)100% (May 10, 8:00 PM)30.49 "Hg (May 10, 8:00 PM)
Low37 °F (May 20, 6:00 AM)19% (May 23, 4:00 PM)29.74 "Hg (May 12, 3:00 AM)
Average59 °F58%30.09 "Hg
* Reported May 10 3:00 PM — May 25 3:00 PM, Whitby, Weather by CustomWeather, © 2015

Note: Actual official high and low records may vary slightly from our data, if they occured in-between our weather recording intervals... More about our weather records

Advertising

Whitby weather history for previous 24 hours

 ConditionsComfort  
Time TempWeatherWind HumidityBarometerVisibility
3:00 PM
Mon, May 25
75 °FMostly cloudy.10 mph57%29.97 "Hg15 mi
2:00 PM73 °FLight rain. Mostly cloudy.13 mph53%29.99 "Hg15 mi
1:00 PM73 °FBroken clouds.10 mph57%30.00 "Hg15 mi
12:00 PM72 °FMostly cloudy.8 mph53%30.02 "Hg15 mi
11:00 AM66 °FBroken clouds.3 mph60%30.04 "Hg15 mi
10:00 AM64 °FMostly cloudy.7 mph64%30.08 "Hg15 mi
9:00 AM63 °FPartly sunny.5 mph68%30.10 "Hg15 mi
8:00 AM61 °FPartly sunny.6 mph72%30.10 "Hg15 mi
7:00 AM61 °FPartly sunny.5 mph77%30.11 "Hg13 mi
6:00 AM61 °FScattered showers. Mostly cloudy.6 mph83%30.11 "Hg14 mi
5:00 AM61 °FPassing clouds.No wind83%30.11 "Hg15 mi
4:48 AM61 °FPassing clouds.No wind83%30.11 "Hg14 mi
4:00 AM61 °FSprinkles. Mostly cloudy.8 mph83%30.12 "Hg14 mi
3:00 AM63 °FMostly cloudy.No wind83%30.13 "Hg14 mi
2:00 AM66 °FLight rain. Passing clouds.No wind60%30.14 "Hg14 mi
1:00 AM70 °FSprinkles. Partly cloudy.6 mph43%30.14 "Hg14 mi
12:00 AM72 °FSprinkles. Partly cloudy.5 mph38%30.14 "Hg14 mi
11:00 PM
Sun, May 24
75 °FScattered showers. Passing clouds.12 mph31%30.13 "Hg15 mi
10:00 PM75 °FMostly cloudy.13 mph31%30.12 "Hg15 mi
9:00 PM77 °FOvercast.12 mph30%30.12 "Hg15 mi
8:00 PM77 °FOvercast.3 mph28%30.13 "Hg15 mi
7:00 PM79 °FPartly sunny.9 mph28%30.12 "Hg15 mi
6:00 PM81 °FBroken clouds.10 mph28%30.13 "Hg15 mi
5:00 PM81 °FBroken clouds.8 mph26%30.13 "Hg15 mi
4:00 PM79 °FPartly sunny.12 mph32%30.15 "Hg15 mi
Weather by CustomWeather, © 2015

See weather overviewHow to use our weather pages